Location: Ay?beleni
(36.6500°N, 30.3000°E)
Time: 16:02:48
(UTC+00:00)

X-37B - Visible Passes

Search period start: 23 July 2021 00:00
Search period end: 02 August 2021 00:00
Orbit: 383 x 392 km, 45.0° (Epoch: 01 July)

Date Brightness Start Highest point End Pass type
(mag) Time Alt. Az. Time Alt. Az. Time Alt. Az.
29 Jul 2.8 01:41:34 13° S 01:43:01 17° SE 01:45:12 10° E visible
30 Jul 0.7 02:18:12 12° SW 02:21:01 71° SSE 02:24:12 10° ENE visible
31 Jul 1.6 01:22:28 33° SSE 01:22:44 34° SE 01:25:40 10° ENE visible
01 Aug 3.8 00:26:41 10° E 00:26:41 10° E 00:26:44 10° E visible
01 Aug 0.9 01:58:58 21° WSW 02:00:55 59° NNW 02:04:04 10° NE visible
